Location: Pardubice
(50.0330°N, 15.7830°E)
Time: 09:23:36
(UTC+02:00)

Courier 1B - All Passes

Search period start: 07 October 2024 00:00
Search period end: 17 October 2024 00:00
Orbit: 962 x 1208 km, 28.3° (Epoch: 06 October)

Date Brightness Start Highest point End Pass type
(mag) Time Alt. Az. Time Alt. Az. Time Alt. Az.
08 Oct - 07:56:05 10° S 07:56:43 10° S 07:57:21 10° S daylight
09 Oct - 07:02:05 10° S 07:03:16 10° S 07:04:25 10° SSE daylight
10 Oct - 06:08:45 10° S 06:09:47 10° S 06:10:49 10° SSE visible
11 Oct - 07:07:32 10° SSW 07:08:49 11° S 07:10:05 10° S daylight
12 Oct - 06:13:20 10° SSW 06:15:20 11° S 06:17:19 10° SSE visible
13 Oct - 05:19:34 10° SSW 05:21:50 12° S 05:24:04 10° SSE visible
14 Oct - 04:26:09 10° S 04:28:19 11° S 04:30:26 10° SSE visible
14 Oct - 06:19:20 10° SSW 06:20:52 11° S 06:22:23 10° S visible
15 Oct - 03:33:13 10° S 03:34:46 11° S 03:36:19 10° SSE visible
15 Oct - 05:24:53 10° SSW 05:27:21 12° S 05:29:47 10° SSE visible
16 Oct - 04:30:56 10° SSW 04:33:50 12° S 04:36:39 10° SSE visible
